owner,sensor,date,latitude,longitude,vertical_datum,sea_water_practical_salinity,qcFlag 
SCCF RECON,ioos:station:SCCF:11:1,2015-07-01T00:00:00Z,26.4679,-82.0631,1.4,31.26,1111122 
SCCF RECON,ioos:station:SCCF:11:1,2015-07-01T01:00:00Z,26.4679,-82.0631,1.46,31.24,1111122 
SCCF RECON,ioos:station:SCCF:11:1,2015-07-01T02:00:00Z,26.4679,-82.0631,1.63,31.33,1111122 
SCCF RECON,ioos:station:SCCF:11:1,2015-07-01T03:00:00Z,26.4679,-82.0631,1.78,31.25,1111122 
SCCF RECON,ioos:station:SCCF:11:1,2015-07-01T04:00:00Z,26.4679,-82.0631,1.91,31.13,1111122 
SCCF RECON,ioos:station:SCCF:11:1,2015-07-01T05:00:00Z,26.4679,-82.0631,2.001,31.19,1111122 
SCCF RECON,ioos:station:SCCF:11:1,2015-07-01T06:00:00Z,26.4679,-82.0631,2.04,30.22,1111122 
SCCF RECON,ioos:station:SCCF:11:1,2015-07-01T07:00:00Z,26.4679,-82.0631,2.02,30.49,1111122 
SCCF RECON,ioos:station:SCCF:11:1,2015-07-01T08:00:00Z,26.4679,-82.0631,1.95,30.89,1111122 
SCCF RECON,ioos:station:SCCF:11:1,2015-07-01T09:00:00Z,26.4679,-82.0631,1.87,31.09,1111122 
SCCF RECON,ioos:station:SCCF:11:1,2015-07-01T10:00:00Z,26.4679,-82.0631,1.82,31.12,1111122 
SCCF RECON,ioos:station:SCCF:11:1,2015-07-01T11:00:00Z,26.4679,-82.0631,1.81,31.14,1111122 
SCCF RECON,ioos:station:SCCF:11:1,2015-07-01T12:00:00Z,26.4679,-82.0631,1.849,31.13,1111122 
SCCF RECON,ioos:station:SCCF:11:1,2015-07-01T13:00:00Z,26.4679,-82.0631,1.96,31.76,1111122 
SCCF RECON,ioos:station:SCCF:11:1,2015-07-01T14:00:00Z,26.4679,-82.0631,2.082,31.91,1111122 
SCCF RECON,ioos:station:SCCF:11:1,2015-07-01T15:00:00Z,26.4679,-82.0631,2.19,32.4,1111122 
SCCF RECON,ioos:station:SCCF:11:1,2015-07-01T16:00:00Z,26.4679,-82.0631,2.289,33.05,1111122 
SCCF RECON,ioos:station:SCCF:11:1,2015-07-01T17:00:00Z,26.4679,-82.0631,2.32,33.44,1111122 
SCCF RECON,ioos:station:SCCF:11:1,2015-07-01T18:00:00Z,26.4679,-82.0631,2.25,33.04,1111122 
SCCF RECON,ioos:station:SCCF:11:1,2015-07-01T19:00:00Z,26.4679,-82.0631,2.08,31.63,1111122 
SCCF RECON,ioos:station:SCCF:11:1,2015-07-01T20:00:00Z,26.4679,-82.0631,1.91,31.52,1111122 
SCCF RECON,ioos:station:SCCF:11:1,2015-07-01T21:00:00Z,26.4679,-82.0631,1.76,31.5,1111122 
SCCF RECON,ioos:station:SCCF:11:1,2015-07-01T22:00:00Z,26.4679,-82.0631,1.62,31.49,1111122 
SCCF RECON,ioos:station:SCCF:11:1,2015-07-01T23:00:00Z,26.4679,-82.0631,1.51,31.38,1111122 
SCCF RECON,ioos:station:SCCF:11:1,2015-07-02T00:00:00Z,26.4679,-82.0631,1.32,31.27,1111122 
SCCF RECON,ioos:station:SCCF:11:1,2015-07-02T01:00:00Z,26.4679,-82.0631,1.35,31.24,1111122 
SCCF RECON,ioos:station:SCCF:11:1,2015-07-02T02:00:00Z,26.4679,-82.0631,1.51,31.33,1111122 
SCCF RECON,ioos:station:SCCF:11:1,2015-07-02T03:00:00Z,26.4679,-82.0631,1.69,30.92,1111122 
SCCF RECON,ioos:station:SCCF:11:1,2015-07-02T04:00:00Z,26.4679,-82.0631,1.85,31.31,1111122 
SCCF RECON,ioos:station:SCCF:11:1,2015-07-02T05:00:00Z,26.4679,-82.0631,1.99,31.42,1111122 
SCCF RECON,ioos:station:SCCF:11:1,2015-07-02T06:00:00Z,26.4679,-82.0631,2.06,31.43,1111122 
SCCF RECON,ioos:station:SCCF:11:1,2015-07-02T07:00:00Z,26.4679,-82.0631,2.11,32.29,1111122 
SCCF RECON,ioos:station:SCCF:11:1,2015-07-02T08:00:00Z,26.4679,-82.0631,2.07,31.96,1111122 
SCCF RECON,ioos:station:SCCF:11:1,2015-07-02T09:00:00Z,26.4679,-82.0631,1.94,31.36,1111122 
SCCF RECON,ioos:station:SCCF:11:1,2015-07-02T10:00:00Z,26.4679,-82.0631,1.86,31.24,1111122 
SCCF RECON,ioos:station:SCCF:11:1,2015-07-02T11:00:00Z,26.4679,-82.0631,1.84,31.2,1111122 
SCCF RECON,ioos:station:SCCF:11:1,2015-07-02T12:00:00Z,26.4679,-82.0631,1.85,31.23,1111122 
SCCF RECON,ioos:station:SCCF:11:1,2015-07-02T13:00:00Z,26.4679,-82.0631,1.947,31.9,1111122 
SCCF RECON,ioos:station:SCCF:11:1,2015-07-02T14:00:00Z,26.4679,-82.0631,2.089,32.43,1111122 
SCCF RECON,ioos:station:SCCF:11:1,2015-07-02T15:00:00Z,26.4679,-82.0631,2.24,32.1,1111122 
SCCF RECON,ioos:station:SCCF:11:1,2015-07-02T16:00:00Z,26.4679,-82.0631,2.34,32.68,1111122 
SCCF RECON,ioos:station:SCCF:11:1,2015-07-02T17:00:00Z,26.4679,-82.0631,2.386,33.51,1111122 
SCCF RECON,ioos:station:SCCF:11:1,2015-07-02T18:00:00Z,26.4679,-82.0631,2.345,33.35,1111122 
SCCF RECON,ioos:station:SCCF:11:1,2015-07-02T19:00:00Z,26.4679,-82.0631,2.22,31.77,1111122 
SCCF RECON,ioos:station:SCCF:11:1,2015-07-02T20:00:00Z,26.4679,-82.0631,2.059,31.67,1111122 
SCCF RECON,ioos:station:SCCF:11:1,2015-07-02T21:00:00Z,26.4679,-82.0631,1.88,31.53,1111122 
SCCF RECON,ioos:station:SCCF:11:1,2015-07-02T22:00:00Z,26.4679,-82.0631,1.75,31.56,1111122 
SCCF RECON,ioos:station:SCCF:11:1,2015-07-02T23:00:00Z,26.4679,-82.0631,1.59,31.52,1111122 
SCCF RECON,ioos:station:SCCF:11:1,2015-07-03T00:00:00Z,26.4679,-82.0631,1.465,31.47,1111122 
SCCF RECON,ioos:station:SCCF:11:1,2015-07-03T01:00:00Z,26.4679,-82.0631,1.38,31.47,1111122 
SCCF RECON,ioos:station:SCCF:11:1,2015-07-03T02:00:00Z,26.4679,-82.0631,1.41,31.47,1111122 
SCCF RECON,ioos:station:SCCF:11:1,2015-07-03T03:00:00Z,26.4679,-82.0631,1.56,31.54,1111122 
SCCF RECON,ioos:station:SCCF:11:1,2015-07-03T04:00:00Z,26.4679,-82.0631,1.77,31.41,1111122 
SCCF RECON,ioos:station:SCCF:11:1,2015-07-03T05:00:00Z,26.4679,-82.0631,1.88,31.57,1111122 
SCCF RECON,ioos:station:SCCF:11:1,2015-07-03T06:00:00Z,26.4679,-82.0631,1.98,31.59,1111122 
SCCF RECON,ioos:station:SCCF:11:1,2015-07-03T07:00:00Z,26.4679,-82.0631,2.06,31.68,1111122 
SCCF RECON,ioos:station:SCCF:11:1,2015-07-03T08:00:00Z,26.4679,-82.0631,2.07,32.32,1111122 
SCCF RECON,ioos:station:SCCF:11:1,2015-07-03T09:00:00Z,26.4679,-82.0631,1.941,31.77,1111122 
SCCF RECON,ioos:station:SCCF:11:1,2015-07-03T10:00:00Z,26.4679,-82.0631,1.86,31.5,1111122 
SCCF RECON,ioos:station:SCCF:11:1,2015-07-03T11:00:00Z,26.4679,-82.0631,1.85,31.58,1111122 
SCCF RECON,ioos:station:SCCF:11:1,2015-07-03T12:00:00Z,26.4679,-82.0631,1.81,31.47,1111122 
SCCF RECON,ioos:station:SCCF:11:1,2015-07-03T13:00:00Z,26.4679,-82.0631,1.864,31.59,1111122 
SCCF RECON,ioos:station:SCCF:11:1,2015-07-03T14:00:00Z,26.4679,-82.0631,1.972,32.19,1111122 
SCCF RECON,ioos:station:SCCF:11:1,2015-07-03T15:00:00Z,26.4679,-82.0631,2.15,32.19,1111122 
SCCF RECON,ioos:station:SCCF:11:1,2015-07-03T16:00:00Z,26.4679,-82.0631,2.275,32.58,1111122 
SCCF RECON,ioos:station:SCCF:11:1,2015-07-03T17:00:00Z,26.4679,-82.0631,2.33,32.85,1111122 
SCCF RECON,ioos:station:SCCF:11:1,2015-07-03T18:00:00Z,26.4679,-82.0631,2.364,33.36,1111122 
SCCF RECON,ioos:station:SCCF:11:1,2015-07-03T19:00:00Z,26.4679,-82.0631,2.31,33.5,1111122 
SCCF RECON,ioos:station:SCCF:11:1,2015-07-03T20:00:00Z,26.4679,-82.0631,2.17,32.13,1111122 
SCCF RECON,ioos:station:SCCF:11:1,2015-07-03T21:00:00Z,26.4679,-82.0631,2.021,31.91,1111122 
SCCF RECON,ioos:station:SCCF:11:1,2015-07-03T22:00:00Z,26.4679,-82.0631,1.87,31.85,1111122 
SCCF RECON,ioos:station:SCCF:11:1,2015-07-03T23:00:00Z,26.4679,-82.0631,1.759,31.81,1111122 
SCCF RECON,ioos:station:SCCF:11:1,2015-07-04T00:00:00Z,26.4679,-82.0631,1.54,31.74,1111122 
SCCF RECON,ioos:station:SCCF:11:1,2015-07-04T01:00:00Z,26.4679,-82.0631,1.46,31.73,1111122 
SCCF RECON,ioos:station:SCCF:11:1,2015-07-04T02:00:00Z,26.4679,-82.0631,1.43,31.69,1111122 
SCCF RECON,ioos:station:SCCF:11:1,2015-07-04T03:00:00Z,26.4679,-82.0631,1.49,31.8,1111122 
SCCF RECON,ioos:station:SCCF:11:1,2015-07-04T04:00:00Z,26.4679,-82.0631,1.64,31.82,1111122 
SCCF RECON,ioos:station:SCCF:11:1,2015-07-04T05:00:00Z,26.4679,-82.0631,1.82,31.85,1111122 
SCCF RECON,ioos:station:SCCF:11:1,2015-07-04T06:00:00Z,26.4679,-82.0631,1.96,31.99,1111122 
SCCF RECON,ioos:station:SCCF:11:1,2015-07-04T07:00:00Z,26.4679,-82.0631,2.04,32.15,1111122 
SCCF RECON,ioos:station:SCCF:11:1,2015-07-04T08:00:00Z,26.4679,-82.0631,2.09,32.14,1111122 
SCCF RECON,ioos:station:SCCF:11:1,2015-07-04T09:00:00Z,26.4679,-82.0631,2.06,32.42,1111122 
SCCF RECON,ioos:station:SCCF:11:1,2015-07-04T10:00:00Z,26.4679,-82.0631,1.992,31.99,1111122 
SCCF RECON,ioos:station:SCCF:11:1,2015-07-04T11:00:00Z,26.4679,-82.0631,1.905,31.98,1111122 
SCCF RECON,ioos:station:SCCF:11:1,2015-07-04T12:00:00Z,26.4679,-82.0631,1.81,31.87,1111122 
SCCF RECON,ioos:station:SCCF:11:1,2015-07-04T13:00:00Z,26.4679,-82.0631,1.76,31.79,1111122 
SCCF RECON,ioos:station:SCCF:11:1,2015-07-04T14:00:00Z,26.4679,-82.0631,1.8,31.8,1111122 
SCCF RECON,ioos:station:SCCF:11:1,2015-07-04T15:00:00Z,26.4679,-82.0631,1.93,32.15,1111122 
SCCF RECON,ioos:station:SCCF:11:1,2015-07-04T16:00:00Z,26.4679,-82.0631,2.097,32.33,1111122 
SCCF RECON,ioos:station:SCCF:11:1,2015-07-04T17:00:00Z,26.4679,-82.0631,2.23,32.37,1111122 
SCCF RECON,ioos:station:SCCF:11:1,2015-07-04T18:00:00Z,26.4679,-82.0631,2.298,33.03,1111122 
SCCF RECON,ioos:station:SCCF:11:1,2015-07-04T19:00:00Z,26.4679,-82.0631,2.31,33.11,1111122 
SCCF RECON,ioos:station:SCCF:11:1,2015-07-04T20:00:00Z,26.4679,-82.0631,2.245,32.16,1111122 
SCCF RECON,ioos:station:SCCF:11:1,2015-07-04T21:00:00Z,26.4679,-82.0631,2.108,32.13,1111122 
SCCF RECON,ioos:station:SCCF:11:1,2015-07-04T22:00:00Z,26.4679,-82.0631,1.977,32.07,1111122 
SCCF RECON,ioos:station:SCCF:11:1,2015-07-04T23:00:00Z,26.4679,-82.0631,1.813,32.16,1111122 
SCCF RECON,ioos:station:SCCF:11:1,2015-07-05T00:00:00Z,26.4679,-82.0631,1.651,31.98,1111122 
SCCF RECON,ioos:station:SCCF:11:1,2015-07-05T01:00:00Z,26.4679,-82.0631,1.52,31.97,1111122 
SCCF RECON,ioos:station:SCCF:11:1,2015-07-05T02:00:00Z,26.4679,-82.0631,1.431,31.95,1111122 
SCCF RECON,ioos:station:SCCF:11:1,2015-07-05T03:00:00Z,26.4679,-82.0631,1.433,31.97,1111122 
SCCF RECON,ioos:station:SCCF:11:1,2015-07-05T04:00:00Z,26.4679,-82.0631,1.56,32.1,1111122 
SCCF RECON,ioos:station:SCCF:11:1,2015-07-05T05:00:00Z,26.4679,-82.0631,1.74,32.05,1111122 
SCCF RECON,ioos:station:SCCF:11:1,2015-07-05T06:00:00Z,26.4679,-82.0631,1.89,32.03,1111122 
SCCF RECON,ioos:station:SCCF:11:1,2015-07-05T07:00:00Z,26.4679,-82.0631,2.01,32.14,1111122 
SCCF RECON,ioos:station:SCCF:11:1,2015-07-05T08:00:00Z,26.4679,-82.0631,2.1,32.22,1111122 
SCCF RECON,ioos:station:SCCF:11:1,2015-07-05T09:00:00Z,26.4679,-82.0631,2.12,32.64,1111122 
SCCF RECON,ioos:station:SCCF:11:1,2015-07-05T10:00:00Z,26.4679,-82.0631,2.05,32.3,1111122 
SCCF RECON,ioos:station:SCCF:11:1,2015-07-05T11:00:00Z,26.4679,-82.0631,1.94,32.11,1111122 
SCCF RECON,ioos:station:SCCF:11:1,2015-07-05T12:00:00Z,26.4679,-82.0631,1.87,32.0,1111122 
SCCF RECON,ioos:station:SCCF:11:1,2015-07-05T13:00:00Z,26.4679,-82.0631,1.808,32.04,1111122 
SCCF RECON,ioos:station:SCCF:11:1,2015-07-05T14:00:00Z,26.4679,-82.0631,1.78,31.97,1111122 
SCCF RECON,ioos:station:SCCF:11:1,2015-07-05T15:00:00Z,26.4679,-82.0631,1.83,31.96,1111122 
SCCF RECON,ioos:station:SCCF:11:1,2015-07-05T16:00:00Z,26.4679,-82.0631,1.95,32.67,1111122 
SCCF RECON,ioos:station:SCCF:11:1,2015-07-05T17:00:00Z,26.4679,-82.0631,2.094,32.41,1111122 
SCCF RECON,ioos:station:SCCF:11:1,2015-07-05T18:00:00Z,26.4679,-82.0631,2.21,32.52,1111122 
SCCF RECON,ioos:station:SCCF:11:1,2015-07-05T19:00:00Z,26.4679,-82.0631,2.26,33.11,1111122 
SCCF RECON,ioos:station:SCCF:11:1,2015-07-05T20:00:00Z,26.4679,-82.0631,2.27,33.5,1111122 
SCCF RECON,ioos:station:SCCF:11:1,2015-07-05T21:00:00Z,26.4679,-82.0631,2.22,32.93,1111122 
SCCF RECON,ioos:station:SCCF:11:1,2015-07-05T22:00:00Z,26.4679,-82.0631,2.1,32.4,1111122 
SCCF RECON,ioos:station:SCCF:11:1,2015-07-05T23:00:00Z,26.4679,-82.0631,1.95,32.28,1111122 
SCCF RECON,ioos:station:SCCF:11:1,2015-07-06T00:00:00Z,26.4679,-82.0631,1.82,32.21,1111122 
SCCF RECON,ioos:station:SCCF:11:1,2015-07-06T01:00:00Z,26.4679,-82.0631,1.75,32.19,1111122 
SCCF RECON,ioos:station:SCCF:11:1,2015-07-06T02:00:00Z,26.4679,-82.0631,1.615,32.15,1111122 
SCCF RECON,ioos:station:SCCF:11:1,2015-07-06T03:00:00Z,26.4679,-82.0631,1.545,31.8,1111122 
SCCF RECON,ioos:station:SCCF:11:1,2015-07-06T04:00:00Z,26.4679,-82.0631,1.48,31.71,1111122 
SCCF RECON,ioos:station:SCCF:11:1,2015-07-06T05:00:00Z,26.4679,-82.0631,1.44,31.72,1111122 
SCCF RECON,ioos:station:SCCF:11:1,2015-07-06T06:00:00Z,26.4679,-82.0631,1.618,32.09,1111122 
SCCF RECON,ioos:station:SCCF:11:1,2015-07-06T07:00:00Z,26.4679,-82.0631,1.84,32.1,1111122 
SCCF RECON,ioos:station:SCCF:11:1,2015-07-06T08:00:00Z,26.4679,-82.0631,2.029,32.16,1111122 
SCCF RECON,ioos:station:SCCF:11:1,2015-07-06T09:00:00Z,26.4679,-82.0631,2.12,32.45,1111122 
SCCF RECON,ioos:station:SCCF:11:1,2015-07-06T10:00:00Z,26.4679,-82.0631,2.14,32.78,1111122 
SCCF RECON,ioos:station:SCCF:11:1,2015-07-06T11:00:00Z,26.4679,-82.0631,2.08,32.31,1111122 
SCCF RECON,ioos:station:SCCF:11:1,2015-07-06T12:00:00Z,26.4679,-82.0631,1.952,32.13,1111122 
SCCF RECON,ioos:station:SCCF:11:1,2015-07-06T13:00:00Z,26.4679,-82.0631,1.861,31.94,1111122 
SCCF RECON,ioos:station:SCCF:11:1,2015-07-06T14:00:00Z,26.4679,-82.0631,1.8,32.0,1111122 
SCCF RECON,ioos:station:SCCF:11:1,2015-07-06T15:00:00Z,26.4679,-82.0631,1.72,31.87,1111122 
SCCF RECON,ioos:station:SCCF:11:1,2015-07-06T16:00:00Z,26.4679,-82.0631,1.731,31.89,1111122 
SCCF RECON,ioos:station:SCCF:11:1,2015-07-06T17:00:00Z,26.4679,-82.0631,1.86,32.1,1111122 
SCCF RECON,ioos:station:SCCF:11:1,2015-07-06T18:00:00Z,26.4679,-82.0631,2.0,31.77,1111122 
SCCF RECON,ioos:station:SCCF:11:1,2015-07-06T19:00:00Z,26.4679,-82.0631,2.13,31.82,1111122 
SCCF RECON,ioos:station:SCCF:11:1,2015-07-06T20:00:00Z,26.4679,-82.0631,2.2,32.31,1111122 
SCCF RECON,ioos:station:SCCF:11:1,2015-07-06T21:00:00Z,26.4679,-82.0631,2.21,32.71,1111122 
SCCF RECON,ioos:station:SCCF:11:1,2015-07-06T22:00:00Z,26.4679,-82.0631,2.17,31.99,1111122 
SCCF RECON,ioos:station:SCCF:11:1,2015-07-06T23:00:00Z,26.4679,-82.0631,2.048,31.88,1111122 
SCCF RECON,ioos:station:SCCF:11:1,2015-07-07T00:00:00Z,26.4679,-82.0631,1.92,31.93,1111122 
SCCF RECON,ioos:station:SCCF:11:1,2015-07-07T01:00:00Z,26.4679,-82.0631,1.78,31.84,1111122 
SCCF RECON,ioos:station:SCCF:11:1,2015-07-07T02:00:00Z,26.4679,-82.0631,1.66,31.81,1111122 
SCCF RECON,ioos:station:SCCF:11:1,2015-07-07T03:00:00Z,26.4679,-82.0631,1.57,31.8,1111122 
SCCF RECON,ioos:station:SCCF:11:1,2015-07-07T04:00:00Z,26.4679,-82.0631,1.527,31.78,1111122 
SCCF RECON,ioos:station:SCCF:11:1,2015-07-07T05:00:00Z,26.4679,-82.0631,1.56,31.81,1111122 
SCCF RECON,ioos:station:SCCF:11:1,2015-07-07T06:00:00Z,26.4679,-82.0631,1.71,31.91,1111122 
SCCF RECON,ioos:station:SCCF:11:1,2015-07-07T07:00:00Z,26.4679,-82.0631,1.89,31.94,1111122 
SCCF RECON,ioos:station:SCCF:11:1,2015-07-07T08:00:00Z,26.4679,-82.0631,2.01,32.0,1111122 
SCCF RECON,ioos:station:SCCF:11:1,2015-07-07T09:00:00Z,26.4679,-82.0631,2.08,32.03,1111122 
SCCF RECON,ioos:station:SCCF:11:1,2015-07-07T10:00:00Z,26.4679,-82.0631,2.13,32.16,1111122 
SCCF RECON,ioos:station:SCCF:11:1,2015-07-07T11:00:00Z,26.4679,-82.0631,2.15,32.31,1111122 
SCCF RECON,ioos:station:SCCF:11:1,2015-07-07T12:00:00Z,26.4679,-82.0631,2.063,32.14,1111122 
SCCF RECON,ioos:station:SCCF:11:1,2015-07-07T13:00:00Z,26.4679,-82.0631,1.95,32.03,1111122 
SCCF RECON,ioos:station:SCCF:11:1,2015-07-07T14:00:00Z,26.4679,-82.0631,1.84,31.92,1111122 
SCCF RECON,ioos:station:SCCF:11:1,2015-07-07T15:00:00Z,26.4679,-82.0631,1.75,31.88,1111122 
SCCF RECON,ioos:station:SCCF:11:1,2015-07-07T16:00:00Z,26.4679,-82.0631,1.68,31.84,1111122 
SCCF RECON,ioos:station:SCCF:11:1,2015-07-07T17:00:00Z,26.4679,-82.0631,1.688,31.81,1111122 
SCCF RECON,ioos:station:SCCF:11:1,2015-07-07T18:00:00Z,26.4679,-82.0631,1.777,31.94,1111122 
SCCF RECON,ioos:station:SCCF:11:1,2015-07-07T19:00:00Z,26.4679,-82.0631,1.91,31.87,1111122 
SCCF RECON,ioos:station:SCCF:11:1,2015-07-07T20:00:00Z,26.4679,-82.0631,2.06,31.55,1111122 
SCCF RECON,ioos:station:SCCF:11:1,2015-07-07T21:00:00Z,26.4679,-82.0631,2.08,31.62,1111122 
SCCF RECON,ioos:station:SCCF:11:1,2015-07-07T22:00:00Z,26.4679,-82.0631,2.11,31.6,1111122 
SCCF RECON,ioos:station:SCCF:11:1,2015-07-07T23:00:00Z,26.4679,-82.0631,2.06,31.59,1111122 
SCCF RECON,ioos:station:SCCF:11:1,2015-07-08T00:00:00Z,26.4679,-82.0631,1.99,31.52,1111122 
SCCF RECON,ioos:station:SCCF:11:1,2015-07-08T01:00:00Z,26.4679,-82.0631,1.88,31.61,1111122 
SCCF RECON,ioos:station:SCCF:11:1,2015-07-08T02:00:00Z,26.4679,-82.0631,1.75,31.81,1111122 
SCCF RECON,ioos:station:SCCF:11:1,2015-07-08T03:00:00Z,26.4679,-82.0631,1.72,31.85,1111122 
SCCF RECON,ioos:station:SCCF:11:1,2015-07-08T04:00:00Z,26.4679,-82.0631,1.655,31.8,1111122 
SCCF RECON,ioos:station:SCCF:11:1,2015-07-08T05:00:00Z,26.4679,-82.0631,1.64,31.84,1111122 
SCCF RECON,ioos:station:SCCF:11:1,2015-07-08T06:00:00Z,26.4679,-82.0631,1.69,31.82,1111122 
SCCF RECON,ioos:station:SCCF:11:1,2015-07-08T07:00:00Z,26.4679,-82.0631,1.805,31.77,1111122 
SCCF RECON,ioos:station:SCCF:11:1,2015-07-08T08:00:00Z,26.4679,-82.0631,1.94,31.24,1111122 
SCCF RECON,ioos:station:SCCF:11:1,2015-07-08T09:00:00Z,26.4679,-82.0631,2.05,31.05,1111122 
SCCF RECON,ioos:station:SCCF:11:1,2015-07-08T10:00:00Z,26.4679,-82.0631,2.131,31.3,1111122 
SCCF RECON,ioos:station:SCCF:11:1,2015-07-08T11:00:00Z,26.4679,-82.0631,2.16,31.5,1111122 
SCCF RECON,ioos:station:SCCF:11:1,2015-07-08T12:00:00Z,26.4679,-82.0631,2.13,31.48,1111122 
SCCF RECON,ioos:station:SCCF:11:1,2015-07-08T13:00:00Z,26.4679,-82.0631,2.05,31.53,1111122 
SCCF RECON,ioos:station:SCCF:11:1,2015-07-08T14:00:00Z,26.4679,-82.0631,1.943,31.47,1111122 
SCCF RECON,ioos:station:SCCF:11:1,2015-07-08T15:00:00Z,26.4679,-82.0631,1.854,31.63,1111122 
SCCF RECON,ioos:station:SCCF:11:1,2015-07-08T16:00:00Z,26.4679,-82.0631,1.748,31.69,1111122 
SCCF RECON,ioos:station:SCCF:11:1,2015-07-08T17:00:00Z,26.4679,-82.0631,1.68,31.79,1111122 
SCCF RECON,ioos:station:SCCF:11:1,2015-07-08T18:00:00Z,26.4679,-82.0631,1.633,31.78,1111122 
SCCF RECON,ioos:station:SCCF:11:1,2015-07-08T19:00:00Z,26.4679,-82.0631,1.71,31.73,1111122 
SCCF RECON,ioos:station:SCCF:11:1,2015-07-08T20:00:00Z,26.4679,-82.0631,1.86,31.67,1111122 
SCCF RECON,ioos:station:SCCF:11:1,2015-07-08T21:00:00Z,26.4679,-82.0631,2.001,31.45,1111122 
SCCF RECON,ioos:station:SCCF:11:1,2015-07-08T22:00:00Z,26.4679,-82.0631,2.02,31.33,1111122 
SCCF RECON,ioos:station:SCCF:11:1,2015-07-08T23:00:00Z,26.4679,-82.0631,2.04,31.36,1111122 
SCCF RECON,ioos:station:SCCF:11:1,2015-07-09T00:00:00Z,26.4679,-82.0631,2.03,31.3,1111122 
SCCF RECON,ioos:station:SCCF:11:1,2015-07-09T01:00:00Z,26.4679,-82.0631,2.01,31.35,1111122 
SCCF RECON,ioos:station:SCCF:11:1,2015-07-09T02:00:00Z,26.4679,-82.0631,1.95,31.36,1111122 
SCCF RECON,ioos:station:SCCF:11:1,2015-07-09T03:00:00Z,26.4679,-82.0631,1.86,31.39,1111122 
SCCF RECON,ioos:station:SCCF:11:1,2015-07-09T04:00:00Z,26.4679,-82.0631,1.8,31.45,1111122 
SCCF RECON,ioos:station:SCCF:11:1,2015-07-09T05:00:00Z,26.4679,-82.0631,1.73,31.48,1111122 
SCCF RECON,ioos:station:SCCF:11:1,2015-07-09T06:00:00Z,26.4679,-82.0631,1.71,31.5,1111122 
SCCF RECON,ioos:station:SCCF:11:1,2015-07-09T07:00:00Z,26.4679,-82.0631,1.742,31.47,1111122 
SCCF RECON,ioos:station:SCCF:11:1,2015-07-09T08:00:00Z,26.4679,-82.0631,1.85,31.48,1111122 
SCCF RECON,ioos:station:SCCF:11:1,2015-07-09T09:00:00Z,26.4679,-82.0631,1.99,31.45,1111122 
SCCF RECON,ioos:station:SCCF:11:1,2015-07-09T10:00:00Z,26.4679,-82.0631,2.09,31.25,1111122 
SCCF RECON,ioos:station:SCCF:11:1,2015-07-09T11:00:00Z,26.4679,-82.0631,2.14,31.17,1111122 
SCCF RECON,ioos:station:SCCF:11:1,2015-07-09T12:00:00Z,26.4679,-82.0631,2.185,31.5,1111122 
SCCF RECON,ioos:station:SCCF:11:1,2015-07-09T13:00:00Z,26.4679,-82.0631,2.15,31.56,1111122 
SCCF RECON,ioos:station:SCCF:11:1,2015-07-09T14:00:00Z,26.4679,-82.0631,2.08,31.24,1111122 
SCCF RECON,ioos:station:SCCF:11:1,2015-07-09T15:00:00Z,26.4679,-82.0631,1.96,31.24,1111122 
SCCF RECON,ioos:station:SCCF:11:1,2015-07-09T16:00:00Z,26.4679,-82.0631,1.828,31.42,1111122 
SCCF RECON,ioos:station:SCCF:11:1,2015-07-09T17:00:00Z,26.4679,-82.0631,1.71,31.49,1111122 
SCCF RECON,ioos:station:SCCF:11:1,2015-07-09T18:00:00Z,26.4679,-82.0631,1.623,31.58,1111122 
SCCF RECON,ioos:station:SCCF:11:1,2015-07-09T19:00:00Z,26.4679,-82.0631,1.574,31.54,1111122 
SCCF RECON,ioos:station:SCCF:11:1,2015-07-09T20:00:00Z,26.4679,-82.0631,1.62,31.53,1111122 
SCCF RECON,ioos:station:SCCF:11:1,2015-07-09T21:00:00Z,26.4679,-82.0631,1.767,31.49,1111122 
SCCF RECON,ioos:station:SCCF:11:1,2015-07-09T22:00:00Z,26.4679,-82.0631,1.9,31.43,1111122 
SCCF RECON,ioos:station:SCCF:11:1,2015-07-09T23:00:00Z,26.4679,-82.0631,1.95,30.66,1111122 
SCCF RECON,ioos:station:SCCF:11:1,2015-07-10T00:00:00Z,26.4679,-82.0631,2.02,31.06,1111122 
SCCF RECON,ioos:station:SCCF:11:1,2015-07-10T01:00:00Z,26.4679,-82.0631,2.046,31.01,1111122 
SCCF RECON,ioos:station:SCCF:11:1,2015-07-10T02:00:00Z,26.4679,-82.0631,2.03,31.25,1111122 
SCCF RECON,ioos:station:SCCF:11:1,2015-07-10T03:00:00Z,26.4679,-82.0631,1.975,30.86,1111122 
SCCF RECON,ioos:station:SCCF:11:1,2015-07-10T04:00:00Z,26.4679,-82.0631,1.91,31.03,1111122 
SCCF RECON,ioos:station:SCCF:11:1,2015-07-10T05:00:00Z,26.4679,-82.0631,1.853,31.2,1111122 
SCCF RECON,ioos:station:SCCF:11:1,2015-07-10T06:00:00Z,26.4679,-82.0631,1.78,31.34,1111122 
SCCF RECON,ioos:station:SCCF:11:1,2015-07-10T07:00:00Z,26.4679,-82.0631,1.76,31.38,1111122 
SCCF RECON,ioos:station:SCCF:11:1,2015-07-10T08:00:00Z,26.4679,-82.0631,1.81,31.26,1111122 
SCCF RECON,ioos:station:SCCF:11:1,2015-07-10T09:00:00Z,26.4679,-82.0631,1.95,31.05,1111122 
SCCF RECON,ioos:station:SCCF:11:1,2015-07-10T10:00:00Z,26.4679,-82.0631,2.08,30.85,1111122 
SCCF RECON,ioos:station:SCCF:11:1,2015-07-10T11:00:00Z,26.4679,-82.0631,2.16,30.8,1111122 
SCCF RECON,ioos:station:SCCF:11:1,2015-07-10T12:00:00Z,26.4679,-82.0631,2.201,31.08,1111122 
SCCF RECON,ioos:station:SCCF:11:1,2015-07-10T13:00:00Z,26.4679,-82.0631,2.23,31.28,1111122 
SCCF RECON,ioos:station:SCCF:11:1,2015-07-10T14:00:00Z,26.4679,-82.0631,2.191,31.3,1111122 
SCCF RECON,ioos:station:SCCF:11:1,2015-07-10T15:00:00Z,26.4679,-82.0631,2.083,31.03,1111122 
SCCF RECON,ioos:station:SCCF:11:1,2015-07-10T16:00:00Z,26.4679,-82.0631,1.961,31.22,1111122 
SCCF RECON,ioos:station:SCCF:11:1,2015-07-10T17:00:00Z,26.4679,-82.0631,1.843,31.34,1111122 
SCCF RECON,ioos:station:SCCF:11:1,2015-07-10T18:00:00Z,26.4679,-82.0631,1.71,31.41,1111122 
SCCF RECON,ioos:station:SCCF:11:1,2015-07-10T19:00:00Z,26.4679,-82.0631,1.601,31.54,1111122 
SCCF RECON,ioos:station:SCCF:11:1,2015-07-10T20:00:00Z,26.4679,-82.0631,1.54,31.59,1111122 
SCCF RECON,ioos:station:SCCF:11:1,2015-07-10T21:00:00Z,26.4679,-82.0631,1.57,31.4,1111122 
SCCF RECON,ioos:station:SCCF:11:1,2015-07-10T22:00:00Z,26.4679,-82.0631,1.68,31.36,1111122 
SCCF RECON,ioos:station:SCCF:11:1,2015-07-10T23:00:00Z,26.4679,-82.0631,1.83,31.49,1111122 
SCCF RECON,ioos:station:SCCF:11:1,2015-07-11T00:00:00Z,26.4679,-82.0631,1.922,31.46,1111122 
SCCF RECON,ioos:station:SCCF:11:1,2015-07-11T01:00:00Z,26.4679,-82.0631,1.98,31.39,1111122 
SCCF RECON,ioos:station:SCCF:11:1,2015-07-11T02:00:00Z,26.4679,-82.0631,2.05,31.37,1111122 
SCCF RECON,ioos:station:SCCF:11:1,2015-07-11T03:00:00Z,26.4679,-82.0631,2.05,30.88,1111122 
SCCF RECON,ioos:station:SCCF:11:1,2015-07-11T04:00:00Z,26.4679,-82.0631,2.03,31.13,1111122 
SCCF RECON,ioos:station:SCCF:11:1,2015-07-11T05:00:00Z,26.4679,-82.0631,1.98,31.1,1111122 
SCCF RECON,ioos:station:SCCF:11:1,2015-07-11T06:00:00Z,26.4679,-82.0631,1.904,31.28,1111122 
SCCF RECON,ioos:station:SCCF:11:1,2015-07-11T07:00:00Z,26.4679,-82.0631,1.82,31.3,1111122 
SCCF RECON,ioos:station:SCCF:11:1,2015-07-11T08:00:00Z,26.4679,-82.0631,1.81,31.38,1111122 
SCCF RECON,ioos:station:SCCF:11:1,2015-07-11T09:00:00Z,26.4679,-82.0631,1.87,31.18,1111122 
SCCF RECON,ioos:station:SCCF:11:1,2015-07-11T10:00:00Z,26.4679,-82.0631,1.96,31.26,1111122 
SCCF RECON,ioos:station:SCCF:11:1,2015-07-11T11:00:00Z,26.4679,-82.0631,2.08,31.18,1111122 
SCCF RECON,ioos:station:SCCF:11:1,2015-07-11T12:00:00Z,26.4679,-82.0631,2.18,31.53,1111122 
SCCF RECON,ioos:station:SCCF:11:1,2015-07-11T13:00:00Z,26.4679,-82.0631,2.243,31.84,1111122 
SCCF RECON,ioos:station:SCCF:11:1,2015-07-11T14:00:00Z,26.4679,-82.0631,2.26,32.59,1111122 
SCCF RECON,ioos:station:SCCF:11:1,2015-07-11T15:00:00Z,26.4679,-82.0631,2.23,32.38,1111122 
SCCF RECON,ioos:station:SCCF:11:1,2015-07-11T16:00:00Z,26.4679,-82.0631,2.1,31.39,1111122 
SCCF RECON,ioos:station:SCCF:11:1,2015-07-11T17:00:00Z,26.4679,-82.0631,1.93,31.4,1111122 
SCCF RECON,ioos:station:SCCF:11:1,2015-07-11T18:00:00Z,26.4679,-82.0631,1.787,31.52,1111122 